Find Starlink 35070

NORAD ID: 65680 Int'l Des: 2025-212 Owner: SPXS Country: US Constellation: starlink operational
LEOCIRCULAR

当前视图

正在加载3D地球...

About Starlink 35070

Starlink 35070 (NORAD 65680) is a starlink constellation satellite (v2 mini) launched Sep 21, 2025 by SPXS of US. It operates in LEO, CIRCULAR orbit with a mass of 575.00 kg.

关于 Starlink 35070

正在加载描述...

即将过境

Passes for default location (London). Set your location on the main map for personalized predictions.

高度历史

Loading altitude history...

两行轨道根数

1 65680U 25212E 26194.19750684 .00015181 00000-0 52344-3 0 9996
2 65680 53.1604 122.3967 0001390 97.8163 262.2996 15.30211477 46460
Epoch: Jul 13, 2026 • Age: 26 hours

当前状态

高度 485.7 km
远地点 / 近地点 N/A
速度 7.62 km/s
星下点 -32.44°S, 68.32°W
发射日期 Sep 21, 2025
运行时间 0.8 years
类型 internet

技术详情

分类 Payload
质量 575.00 kg
干质量 530.00 kg
总质量 575.00 kg
长度 0.30 m
直径 4.10 m
跨度 29.00 m
形状 Box + pan
制造商 SPXS
平台类型 Starlink V2MO
阶段状态 In Orbit
所有者/国家 SPXS/US

Most Searched